• In Kazakhstan
  • List of Countries
  • For 7 days
  • Water Temperature
  • Satellite Maps
  • Weather Map
  • News
  • Weather Widgets
  • user-avatar
    Login

    Hourly Weather Sieroniowice

    Today, 20 April, Saturday

    Time Temperature Precipitation Wind Pressure Humidity
    00:00 +11°C° 0 mm 1 mps 750 mmHg 55%
    01:00 +11°C° 0 mm 1 mps 749 mmHg 55%
    02:00 +10°C° 0 mm 1 mps 749 mmHg 57%
    03:00 +10°C° 0 mm 1 mps 749 mmHg 58%
    04:00 +9°C° 0 mm 1 mps 749 mmHg 60%
    05:00 +10°C° 0 mm 1 mps 749 mmHg 59%
    06:00 +11°C° 0 mm 1 mps 749 mmHg 57%
    07:00 +12°C° 0 mm 2 mps 749 mmHg 54%
    08:00 +14°C° 0 mm 2 mps 749 mmHg 48%
    09:00 +16°C° 0 mm 2 mps 749 mmHg 42%
    10:00 +18°C° 0 mm 3 mps 749 mmHg 35%
    11:00 +19°C° 0 mm 3 mps 748 mmHg 33%
    12:00 +19°C° 0 mm 4 mps 748 mmHg 31%
    13:00 +21°C° 0 mm 4 mps 748 mmHg 28%
    14:00 +20°C° 0 mm 4 mps 748 mmHg 29%
    15:00 +20°C° 0 mm 4 mps 747 mmHg 30%
    16:00 +19°C° 0 mm 4 mps 747 mmHg 30%
    17:00 +18°C° 0 mm 4 mps 747 mmHg 35%
    18:00 +16°C° 0 mm 3 mps 747 mmHg 39%
    19:00 +14°C° 0 mm 2 mps 746 mmHg 43%
    20:00 +13°C° 0 mm 2 mps 746 mmHg 47%
    21:00 +12°C° 0 mm 2 mps 746 mmHg 50%
    22:00 +11°C° 0 mm 1 mps 746 mmHg 54%
    23:00 +10°C° 0 mm 1 mps 746 mmHg 58%

    Tomorrow, 21 April, Sunday

    Time Temperature Precipitation Wind Pressure Humidity
    00:00 +9°C° 0 mm 2 mps 746 mmHg 62%
    01:00 +8°C° 0 mm 2 mps 746 mmHg 65%
    02:00 +7°C° 0 mm 2 mps 746 mmHg 68%
    03:00 +7°C° 0 mm 2 mps 746 mmHg 71%
    04:00 +6°C° 0 mm 2 mps 746 mmHg 73%
    05:00 +7°C° 0 mm 2 mps 746 mmHg 70%
    06:00 +8°C° 0 mm 2 mps 745 mmHg 66%
    07:00 +9°C° 0 mm 2 mps 745 mmHg 62%
    08:00 +12°C° 0 mm 2 mps 745 mmHg 55%
    09:00 +13°C° 0 mm 3 mps 745 mmHg 48%
    10:00 +14°C° 0 mm 3 mps 745 mmHg 41%
    11:00 +16°C° 0 mm 3 mps 744 mmHg 38%
    12:00 +17°C° 0 mm 3 mps 744 mmHg 35%
    13:00 +18°C° 0 mm 3 mps 744 mmHg 32%
    14:00 +18°C° 0 mm 3 mps 743 mmHg 32%
    15:00 +18°C° 0 mm 3 mps 743 mmHg 33%
    16:00 +18°C° 0 mm 3 mps 742 mmHg 33%
    17:00 +16°C° 0 mm 2 mps 742 mmHg 38%
    18:00 +15°C° 0 mm 2 mps 742 mmHg 44%
    19:00 +13°C° 0 mm 2 mps 741 mmHg 49%
    20:00 +12°C° 0 mm 2 mps 741 mmHg 51%
    21:00 +10°C° 0 mm 2 mps 741 mmHg 54%
    22:00 +10°C° 0 mm 2 mps 741 mmHg 56%
    23:00 +9°C° 0 mm 2 mps 741 mmHg 59%

    Day after tomorrow, 22 April, Monday

    Time Temperature Precipitation Wind Pressure Humidity
    00:00 +8°C° 0 mm 2 mps 741 mmHg 62%
    01:00 +8°C° 0 mm 2 mps 741 mmHg 65%
    02:00 +7°C° 0 mm 2 mps 741 mmHg 70%
    03:00 +6°C° 0 mm 2 mps 740 mmHg 76%
    04:00 +6°C° 0 mm 2 mps 740 mmHg 81%
    05:00 +7°C° 0 mm 3 mps 740 mmHg 77%
    06:00 +7°C° 0 mm 3 mps 740 mmHg 73%
    07:00 +8°C° 0 mm 3 mps 740 mmHg 68%
    08:00 +10°C° 0 mm 4 mps 740 mmHg 61%
    09:00 +11°C° 0 mm 4 mps 740 mmHg 53%
    10:00 +13°C° 0 mm 4 mps 740 mmHg 46%
    11:00 +13°C° 0.1 mm 4 mps 740 mmHg 43%
    12:00 +14°C° 0.1 mm 5 mps 740 mmHg 41%
    13:00 +15°C° 0.1 mm 5 mps 740 mmHg 39%
    14:00 +15°C° 0 mm 5 mps 739 mmHg 40%
    15:00 +15°C° 0 mm 6 mps 739 mmHg 41%
    16:00 +16°C° 0 mm 7 mps 739 mmHg 42%
    17:00 +15°C° 0 mm 6 mps 739 mmHg 49%
    18:00 +13°C° 0 mm 6 mps 739 mmHg 56%
    19:00 +12°C° 0 mm 5 mps 739 mmHg 63%
    20:00 +10°C° 0 mm 5 mps 739 mmHg 64%
    21:00 +10°C° 0 mm 6 mps 739 mmHg 66%
    22:00 +9°C° 0 mm 6 mps 739 mmHg 67%
    23:00 +9°C° 0 mm 6 mps 739 mmHg 68%

    23 April, Tuesday

    Time Temperature Precipitation Wind Pressure Humidity
    00:00 +8°C° 0 mm 5 mps 738 mmHg 68%
    01:00 +8°C° 0 mm 5 mps 738 mmHg 69%
    02:00 +8°C° 0.1 mm 5 mps 738 mmHg 71%
    03:00 +8°C° 0.1 mm 5 mps 738 mmHg 73%
    04:00 +7°C° 0.1 mm 5 mps 737 mmHg 75%
    05:00 +8°C° 0 mm 5 mps 737 mmHg 75%
    06:00 +8°C° 0 mm 6 mps 737 mmHg 74%
    07:00 +9°C° 0 mm 6 mps 737 mmHg 74%
    08:00 +11°C° 0 mm 6 mps 737 mmHg 66%
    09:00 +14°C° 0 mm 6 mps 737 mmHg 58%
    10:00 +17°C° 0 mm 6 mps 737 mmHg 50%
    11:00 +17°C° 0.3 mm 6 mps 737 mmHg 50%
    12:00 +17°C° 0.3 mm 6 mps 737 mmHg 50%
    13:00 +19°C° 0.3 mm 6 mps 737 mmHg 50%
    14:00 +17°C° 0.3 mm 6 mps 737 mmHg 53%
    15:00 +16°C° 0.3 mm 6 mps 736 mmHg 56%
    16:00 +15°C° 0.3 mm 7 mps 736 mmHg 59%
    17:00 +14°C° 0.2 mm 6 mps 736 mmHg 64%
    18:00 +12°C° 0.2 mm 5 mps 736 mmHg 70%
    19:00 +10°C° 0.2 mm 5 mps 736 mmHg 76%
    20:00 +10°C° 0.1 mm 5 mps 736 mmHg 75%
    21:00 +10°C° 0.1 mm 5 mps 736 mmHg 75%
    22:00 +10°C° 0.1 mm 5 mps 736 mmHg 74%
    23:00 +11°C° 0 mm 4 mps 735 mmHg 74%

    24 April, Wednesday

    Time Temperature Precipitation Wind Pressure Humidity
    00:00 +10°C° 0 mm 4 mps 735 mmHg 75%
    01:00 +10°C° 0 mm 4 mps 735 mmHg 75%
    02:00 +10°C° 0 mm 4 mps 735 mmHg 76%
    03:00 +10°C° 0 mm 4 mps 735 mmHg 78%
    04:00 +8°C° 0 mm 5 mps 735 mmHg 79%
    05:00 +10°C° 0 mm 5 mps 735 mmHg 76%
    06:00 +12°C° 0 mm 5 mps 735 mmHg 72%
    07:00 +13°C° 0 mm 6 mps 735 mmHg 68%
    08:00 +15°C° 0 mm 6 mps 736 mmHg 63%
    09:00 +17°C° 0 mm 7 mps 736 mmHg 58%
    10:00 +21°C° 0 mm 7 mps 737 mmHg 53%
    11:00 +21°C° 0 mm 7 mps 737 mmHg 52%
    12:00 +21°C° 0 mm 7 mps 737 mmHg 51%
    13:00 +21°C° 0 mm 7 mps 737 mmHg 50%
    14:00 +21°C° 0 mm 6 mps 737 mmHg 53%
    15:00 +20°C° 0 mm 6 mps 738 mmHg 56%
    16:00 +20°C° 0 mm 5 mps 738 mmHg 59%
    17:00 +19°C° 0 mm 4 mps 738 mmHg 61%
    18:00 +18°C° 0 mm 4 mps 738 mmHg 62%
    19:00 +17°C° 0 mm 4 mps 738 mmHg 64%
    20:00 +17°C° 0 mm 4 mps 738 mmHg 65%
    21:00 +15°C° 0 mm 4 mps 738 mmHg 67%
    22:00 +14°C° 0 mm 4 mps 738 mmHg 69%
    23:00 +14°C° 0 mm 4 mps 738 mmHg 72%

    25 April, Thursday

    Time Temperature Precipitation Wind Pressure Humidity
    00:00 +14°C° 0 mm 4 mps 738 mmHg 74%
    01:00 +13°C° 0 mm 4 mps 738 mmHg 77%
    02:00 +13°C° 0 mm 4 mps 738 mmHg 79%
    03:00 +12°C° 0 mm 3 mps 738 mmHg 81%
    04:00 +12°C° 0 mm 3 mps 738 mmHg 83%
    05:00 +13°C° 0 mm 4 mps 738 mmHg 79%
    06:00 +14°C° 0 mm 4 mps 738 mmHg 75%
    07:00 +17°C° 0 mm 4 mps 738 mmHg 71%
    08:00 +18°C° 0 mm 4 mps 739 mmHg 67%
    09:00 +19°C° 0 mm 5 mps 739 mmHg 63%
    10:00 +20°C° 0 mm 5 mps 739 mmHg 59%
    11:00 +21°C° 0 mm 5 mps 739 mmHg 58%
    12:00 +21°C° 0 mm 5 mps 739 mmHg 56%
    13:00 +22°C° 0 mm 6 mps 739 mmHg 54%
    14:00 +22°C° 0 mm 6 mps 738 mmHg 55%
    15:00 +22°C° 0 mm 5 mps 738 mmHg 55%
    16:00 +22°C° 0 mm 5 mps 738 mmHg 56%
    17:00 +21°C° 0 mm 4 mps 738 mmHg 61%
    18:00 +20°C° 0 mm 3 mps 738 mmHg 66%
    19:00 +18°C° 0 mm 2 mps 737 mmHg 72%
    20:00 +18°C° 0 mm 3 mps 737 mmHg 72%
    21:00 +18°C° 0 mm 3 mps 737 mmHg 72%
    22:00 +17°C° 0 mm 4 mps 737 mmHg 72%
    23:00 +17°C° 0 mm 4 mps 737 mmHg 73%
    Show more